Weather Roundup
Issued by NWS

Home | Current Version | Previous Version | Text Only | Print | Product List | Glossary On
Versions: 1 2 3 4 5 6 7 8 9 10 11 12 13 14 15 16 17 18 19 20 21 22 23 24 25 26 27 28 29 30 31 32 33 34 35 36 37 38 39 40 41 42 43 44 45 46 47 48 49 50
000
NZUS93 KARX 251059
HRRWXR

CURRENT HOURLY OBSERVATIONS ACROSS
MUCH OF THE UPPER MISSISSIPPI VALLEY
NATIONAL WEATHER SERVICE LA CROSSE WI
500 AM CST THU DEC 25 2014


...SOUTHEAST MINNESOTA...


CITY           SKY/WX    TMP DP  RH WIND       PRES   REMARKS
ROCHESTER      CLOUDY    27  25  92 SW15      29.67R WCI  15
ROCHESTER/MAYO CLOUDY    28  27  94 S10       29.67S WCI  19
WINONA         CLOUDY    32  28  86 W3        29.71R
AUSTIN         CLOUDY    28  27  93 S12       29.66S WCI  18
ALBERT LEA     CLOUDY    28  28 100 S10G16    29.65R FOG     WCI  19
DODGE CENTER   CLOUDY    28  27  93 S12       29.65R WCI  18
PRESTON        CLOUDY    27  26  94 SW14      29.68S WCI  16
OWATONNA       CLOUDY    28  27  93 S13       29.65S WCI  18
FARIBAULT      CLOUDY    28  27  93 S8        29.65R WCI  20
$$

...ELSEWHERE IN MINNESOTA...


CITY           SKY/WX    TMP DP  RH WIND       PRES   REMARKS
MINNEAPOLIS    CLOUDY    30  25  81 S8        29.63S WCI  22
INTNL FALLS    CLOUDY    30  27  88 W8        29.46R WCI  22
DULUTH         CLOUDY    31  26  82 SW13      29.51R WCI  21
RED WING       CLOUDY    30  27  86 SW10      29.66R WCI  21
REDWOOD FALLS  CLOUDY    30  27  88 S8        29.60R WCI  22
MANKATO        CLOUDY    28  25  86 S13       29.63S WCI  18
WORTHINGTON    MOCLDY    27 -20  12 S9        29.58R WCI  17
FAIRMONT       CLOUDY    28  25  86 S15       29.61S WCI  17
$$

...SOUTHWEST WISCONSIN...


CITY           SKY/WX    TMP DP  RH WIND       PRES   REMARKS
LA CROSSE      CLOUDY    32  26  78 SW14      29.71R WCI  22
PRAIRIE DU CHI CLOUDY    32  27  80 SW8       29.75S WCI  25
BOSCOBEL       CLOUDY    33  26  75 SW13      29.75R WCI  24
LONE ROCK      CLOUDY    36  28  73 SW8       29.74R WCI  30
PLATTEVILLE    CLOUDY    31  28  88 SW13      29.76S WCI  22
FORT MC COY    CLOUDY    32  28  86 SW6       29.70R WCI  26
VIROQUA        CLOUDY    30  30 100 SW10      29.70R WCI  21
WIS DELLS      NOT AVBL
$$

...ELSEWHERE IN WISCONSIN...


CITY           SKY/WX    TMP DP  RH WIND       PRES   REMARKS
MILWAUKEE      CLOUDY    36  27  69 W15G22    29.75R WCI  27
MADISON        CLOUDY    33  28  81 MISG      29.74R
GREEN BAY      CLEAR     33  29  85 SW9       29.67R WCI  25
EAU CLAIRE     CLOUDY    31  26  82 SW10      29.65R WCI  22
BLACK RVR FLS  CLOUDY    33  28  85 SW8       29.68R WCI  25
MEDFORD        CLOUDY    30  27  88 SW13      29.61R WCI  20
WAUSAU         CLOUDY    32  28  85 W9        29.62R WCI  24
WIS RAPIDS     CLOUDY    32  27  81 SW10G18   29.69R WCI  24
MARSHFIELD     CLOUDY    32  27  81 SW12      29.65R WCI  23
RICE LAKE      CLOUDY    31  28  88 S7        29.62S WCI  24
$$

...NORTHEAST IOWA...


CITY           SKY/WX    TMP DP  RH WIND       PRES   REMARKS
DECORAH        CLOUDY    30  27  86 VRB6G13   29.71R WCI  24
MASON CITY     CLOUDY    29  27  92 S10G22    29.68F WCI  20
CHARLES CITY   CLOUDY    30  28  93 SW12      29.70F FOG     WCI  21
OELWEIN        CLOUDY    30  28  93 SW14      29.74S WCI  20
$$

...ELSEWHERE IN IOWA...


CITY           SKY/WX    TMP DP  RH WIND       PRES   REMARKS
DES MOINES     CLEAR     31  27  85 S12       29.73S WCI  22
IOWA CITY      CLOUDY    33  28  81 SW13      29.82R WCI  24
FORT DODGE     CLEAR     28  25  86 S13       29.65F WCI  18
$$

...NORTHERN ILLINOIS...


CITY           SKY/WX    TMP DP  RH WIND       PRES   REMARKS
CHICAGO-OHARE  CLOUDY    34  27  75 W17G26    29.80R WCI  23
CHICAGO-MIDWAY CLOUDY    36  30  79 W15G22    29.83R WCI  27
MOLINE         CLOUDY    33  27  78 W13       29.83R WCI  24
ROCKFORD       CLOUDY    33  27  78 W14G23    29.82R WCI  23
PEORIA         CLOUDY    36  28  73 SW12      29.87R WCI  28
$$

NOTE: "FAIR" INDICATES FEW OR NO CLOUDS BELOW 12,000 FEET WITH NO
SIGNIFICANT WEATHER AND/OR OBSTRUCTIONS TO VISIBILITY. WIND
SPEEDS ARE IN MILES-PER-HOUR.



USA.gov is the U.S. government's official web portal to all federal, state and local government web resources and services.